星链-32835 (STARLINK-32835)

导读

STARLINK-32835是美国于2025年2月18日发射的星链卫星,隶属于SpaceX公司打造的星链卫星互联网星座项目。星链系统旨在为全球提供覆盖偏远地区的高速低延迟宽带服务,该卫星入轨后,进一步扩充了星链星座的规模,持续推进全球卫星互联网组网布局。

Basic Information
目录编号:
63051
目录名称:
STARLINK-32835
国际标识:
2025-034Y
轨道中心:
EARTH
卫星名称:
星链-32835
卫星全名:
星链-32835 (STARLINK-32835)
卫星状态:
在轨 (已飞行481 天)
发射日期:
2025-02-18 UTC
国别 :
美国 (US)
星等 :
--
Orbit Information
数据来源 国际轨道数据 AOE轨道数据
星历时间 2026-06-14T02:22:44+0800
15小时前
查看轨道信息
2026-06-13T07:00:00+0800
1天前
查看轨道信息
半长轴 6840.834km 6840.879km
偏心率 0.0001244 0.0001071
轨道倾角 53.159° 53.157°
近地点辐角 79.153° 87.755°
升交点赤经 183.433° 187.209°
平近点角 280.962° 129.594°
近地点 461.846km 462.009km
远地点 463.548km 463.475km
周期 93.848分钟 93.849分钟
每日圈数 15.344024 15.343872
Detailed Information
固有亮度:
5
最大亮度:
2.5
卫星平台:
Starlink V1.0
覆盖范围:
全球
运营商:
太空探索技术公司
运营商所在国:
美国
制造商(研发单位):
太空探索技术公司
制造商所在国:
美国
使用方式:
暂无
Satellite Introduction
Starlink 计划是 SpaceX 推出的全球卫星互联网项目,通过发射低轨道卫星,为全球尤其是偏远地区提供高速、低延迟的互联网服务。自 2019 年起,Starlink 已部署数千颗卫星,旨在缩小全球数字鸿沟,推动互联网普及。该项目还为军事、航空等行业提供通信支持,带来广泛经济效益。
2D Orbit Map
3D Orbit Map
Orbit Altitude Analysis Chart
Orbit Inclination Analysis Chart
Orbit Comprehensive Analysis Chart
View Comprehensive Chart